contact:dominique.lefevre@mio.osupytheas.fr, maurice.libes@osupytheas.fr, didier.mallarino@osupytheas.fr
Project:EMSO http://www.emso-fr.org/EMSO-France
Depth: 2436.0 m
Title:EMSO Ligure Ouest : Data MII capteur AQUADOPP
Date,Latitude,Longitude,X_East,Y_North,Z_Up,Amplitude_X,Amplitude_Y,Amplitude_Z,Batterie,SoundSpeed,Heading,Pitch,Roll,Pressure,TIS,Speed,Direction
, degrees North, degrees East, m.s-1, m.s-1,m.s-1, 1, 1, 1, Volt, m.s-1, degree, degree, degree, dbar, degree_C, m.s-1, degree
2021-02-27T00:04:03,42.805,6.029,-0.022,-0.077,-0.005,110.0,108.0,107.0,13.3,1505.2,324.7,-0.8,1.8,2470.309,13.28,0.08,195.9
2021-02-27T00:07:03,42.805,6.029,-0.027,-0.05,-0.017,109.0,109.0,106.0,13.4,1505.2,323.6,-0.8,1.8,2470.272,13.28,0.056,208.4
2021-02-27T00:10:03,42.805,6.029,-0.022,-0.061,0.0,110.0,108.0,106.0,13.4,1505.2,328.0,-0.7,1.8,2470.297,13.28,0.064,199.8
2021-02-27T00:13:03,42.805,6.029,-0.057,-0.051,-0.002,109.0,109.0,106.0,13.4,1505.2,326.3,-0.7,1.8,2470.251,13.28,0.076,228.2
2021-02-27T00:16:03,42.805,6.029,-0.027,-0.071,-0.002,110.0,109.0,106.0,13.4,1505.2,327.9,-0.7,1.8,2470.264,13.28,0.075,200.8
2021-02-27T00:19:03,42.805,6.029,-0.013,-0.041,-0.013,110.0,111.0,107.0,13.3,1505.2,326.5,-0.7,1.8,2470.276,13.28,0.043,197.6
2021-02-27T00:22:03,42.805,6.029,-0.025,-0.07,-0.008,110.0,109.0,107.0,13.4,1505.2,324.7,-0.7,1.8,2470.23,13.28,0.074,199.6
2021-02-27T00:25:03,42.805,6.029,-0.028,-0.036,-0.006,110.0,109.0,106.0,13.4,1505.2,327.1,-0.7,1.8,2470.26,13.28,0.045,217.9
2021-02-27T00:28:03,42.805,6.029,-0.029,-0.037,-0.009,110.0,108.0,106.0,13.3,1505.2,327.3,-0.7,1.8,2470.247,13.28,0.047,218.1
2021-02-27T00:31:03,42.805,6.029,-0.006,-0.039,-0.004,111.0,110.0,107.0,13.4,1505.2,327.6,-0.8,1.8,2470.257,13.28,0.039,188.7
2021-02-27T00:34:03,42.805,6.029,-0.033,-0.047,-0.021,111.0,109.0,106.0,13.3,1505.2,325.8,-0.7,1.8,2470.229,13.28,0.057,215.1
2021-02-27T00:37:03,42.805,6.029,-0.026,-0.06,-0.007,111.0,109.0,106.0,13.3,1505.2,327.1,-0.8,1.8,2470.261,13.28,0.065,203.4
2021-02-27T00:40:03,42.805,6.029,-0.023,-0.059,-0.014,111.0,110.0,106.0,13.4,1505.2,325.4,-0.8,1.8,2470.226,13.28,0.063,201.3
2021-02-27T00:43:03,42.805,6.029,-0.014,-0.052,-0.008,111.0,109.0,106.0,13.4,1505.2,327.0,-0.8,1.8,2470.257,13.28,0.053,195.1
2021-02-27T00:46:03,42.805,6.029,-0.02,-0.056,-0.019,111.0,110.0,107.0,13.3,1505.2,327.9,-0.7,1.8,2470.298,13.28,0.059,199.6
2021-02-27T00:49:03,42.805,6.029,-0.012,-0.058,-0.013,110.0,109.0,107.0,13.3,1505.2,323.3,-0.7,1.8,2470.258,13.28,0.059,191.7
2021-02-27T00:52:03,42.805,6.029,-0.019,-0.059,-0.007,111.0,110.0,106.0,13.4,1505.2,325.5,-0.7,1.8,2470.231,13.28,0.061,197.8
2021-02-27T00:55:03,42.805,6.029,-0.052,-0.053,-0.022,111.0,109.0,107.0,13.4,1505.2,327.3,-0.7,1.8,2470.231,13.28,0.074,224.5
2021-02-27T00:58:03,42.805,6.029,-0.012,-0.041,0.006,110.0,110.0,106.0,13.4,1505.2,324.5,-0.8,1.8,2470.226,13.28,0.042,196.3
2021-02-27T01:04:03,42.805,6.029,-0.014,-0.061,0.009,110.0,110.0,107.0,13.4,1505.2,325.7,-0.8,1.8,2470.274,13.28,0.062,192.9
2021-02-27T01:07:03,42.805,6.029,0.0,-0.055,-0.016,110.0,109.0,107.0,13.4,1505.2,324.2,-0.8,1.8,2470.266,13.28,0.055,180.0
2021-02-27T01:10:03,42.805,6.029,-0.025,-0.07,0.005,110.0,110.0,106.0,13.4,1505.2,324.9,-0.8,1.8,2470.296,13.28,0.074,199.6
2021-02-27T01:13:03,42.805,6.029,-0.026,-0.059,0.001,111.0,110.0,107.0,13.3,1505.2,326.9,-0.7,1.8,2470.223,13.28,0.064,203.8
2021-02-27T01:16:03,42.805,6.029,-0.023,-0.067,0.023,109.0,108.0,108.0,13.4,1505.2,326.3,-0.8,1.8,2470.249,13.28,0.07,198.9
2021-02-27T01:19:03,42.805,6.029,-0.006,-0.062,-0.032,109.0,110.0,106.0,13.4,1505.2,325.7,-0.8,1.9,2470.281,13.28,0.062,185.5
2021-02-27T01:22:03,42.805,6.029,-0.022,-0.053,0.012,111.0,109.0,106.0,13.4,1505.2,323.2,-0.8,1.8,2470.24,13.28,0.057,202.5
2021-02-27T01:25:03,42.805,6.029,-0.008,-0.056,-0.01,112.0,109.0,107.0,13.4,1505.2,326.3,-0.8,1.9,2470.262,13.28,0.056,188.1
2021-02-27T01:28:03,42.805,6.029,-0.005,-0.063,-0.007,111.0,110.0,106.0,13.4,1505.2,322.8,-0.7,1.8,2470.266,13.28,0.063,184.5
2021-02-27T01:31:03,42.805,6.029,-0.025,-0.052,0.008,111.0,109.0,107.0,13.4,1505.2,327.1,-0.8,1.8,2470.236,13.28,0.057,205.7
2021-02-27T01:34:03,42.805,6.029,-0.004,-0.058,-0.013,110.0,109.0,108.0,13.4,1505.2,328.0,-0.7,1.8,2470.204,13.28,0.058,183.9
2021-02-27T01:37:03,42.805,6.029,-0.006,-0.072,-0.031,110.0,110.0,106.0,13.4,1505.2,325.4,-0.8,1.8,2470.258,13.28,0.072,184.8
2021-02-27T01:40:03,42.805,6.029,-0.013,-0.052,-0.005,111.0,110.0,107.0,13.4,1505.2,328.4,-0.7,1.8,2470.263,13.28,0.053,194.0
2021-02-27T01:43:03,42.805,6.029,0.0,-0.065,-0.023,110.0,111.0,107.0,13.4,1505.2,324.1,-0.7,1.8,2470.276,13.28,0.064,180.0
2021-02-27T01:46:03,42.805,6.029,0.0,-0.05,-0.019,112.0,111.0,107.0,13.3,1505.2,323.6,-0.7,1.8,2470.281,13.28,0.05,180.0
2021-02-27T01:49:03,42.805,6.029,-0.007,-0.085,0.025,110.0,109.0,107.0,13.3,1505.2,328.6,-0.7,1.8,2470.274,13.28,0.085,184.7
2021-02-27T01:52:03,42.805,6.029,-0.01,-0.057,-0.023,111.0,110.0,108.0,13.4,1505.2,325.5,-0.7,1.8,2470.257,13.28,0.057,189.9
2021-02-27T01:55:03,42.805,6.029,-0.025,-0.074,-0.019,110.0,111.0,108.0,13.4,1505.2,325.9,-0.8,1.8,2470.249,13.28,0.078,198.7
2021-02-27T01:58:03,42.805,6.029,-0.043,-0.047,0.007,112.0,110.0,107.0,13.4,1505.2,323.4,-0.7,1.9,2470.291,13.28,0.063,222.5
2021-02-27T02:04:03,42.805,6.029,-0.047,-0.043,-0.021,110.0,111.0,109.0,13.4,1505.2,326.7,-0.7,1.8,2470.275,13.28,0.063,227.5
2021-02-27T02:07:03,42.805,6.029,-0.015,-0.058,0.0,111.0,110.0,108.0,13.4,1505.2,325.4,-0.8,1.8,2470.301,13.28,0.059,194.5
2021-02-27T02:10:03,42.805,6.029,-0.013,-0.042,-0.017,111.0,110.0,108.0,13.3,1505.2,326.5,-0.7,1.8,2470.299,13.28,0.043,197.2
2021-02-27T02:13:03,42.805,6.029,-0.024,-0.058,-0.018,111.0,110.0,106.0,13.3,1505.2,326.4,-0.8,1.8,2470.293,13.28,0.062,202.5
2021-02-27T02:16:03,42.805,6.029,-0.013,-0.054,-0.016,110.0,111.0,107.0,13.4,1505.2,326.8,-0.7,1.8,2470.316,13.28,0.055,193.5
2021-02-27T02:19:03,42.805,6.029,-0.045,-0.062,-0.021,110.0,111.0,107.0,13.3,1505.2,324.5,-0.8,1.8,2470.251,13.28,0.076,216.0
2021-02-27T02:22:03,42.805,6.029,-0.043,-0.065,-0.024,110.0,110.0,106.0,13.3,1505.2,324.6,-0.7,1.8,2470.317,13.28,0.077,213.5
2021-02-27T02:25:03,42.805,6.029,-0.034,-0.061,0.016,110.0,110.0,108.0,13.4,1505.2,324.9,-0.8,1.9,2470.284,13.28,0.069,209.1
2021-02-27T02:28:03,42.805,6.029,-0.046,-0.061,0.006,111.0,109.0,107.0,13.4,1505.2,324.0,-0.7,1.8,2470.316,13.28,0.076,217.0
2021-02-27T02:31:03,42.805,6.029,-0.077,-0.063,-0.016,111.0,110.0,107.0,13.4,1505.2,325.2,-0.7,1.8,2470.258,13.28,0.099,230.7
2021-02-27T02:34:03,42.805,6.029,-0.061,-0.075,-0.01,110.0,110.0,107.0,13.4,1505.2,323.3,-0.7,1.8,2470.286,13.28,0.096,219.1
2021-02-27T02:37:03,42.805,6.029,-0.069,-0.047,-0.004,111.0,110.0,107.0,13.4,1505.2,324.6,-0.7,1.8,2470.26,13.28,0.083,235.7
2021-02-27T02:40:03,42.805,6.029,-0.069,-0.06,-0.018,110.0,110.0,107.0,13.4,1505.2,325.6,-0.7,1.8,2470.274,13.28,0.091,229.0
2021-02-27T02:43:03,42.805,6.029,-0.069,-0.036,-0.005,111.0,110.0,107.0,13.4,1505.2,327.6,-0.7,1.8,2470.28,13.28,0.077,242.4
2021-02-27T02:46:03,42.805,6.029,-0.047,-0.043,-0.016,111.0,110.0,107.0,13.4,1505.2,324.4,-0.7,1.8,2470.273,13.28,0.063,227.5
2021-02-27T02:49:03,42.805,6.029,-0.076,-0.052,-0.019,111.0,109.0,106.0,13.4,1505.2,327.5,-0.7,1.8,2470.299,13.28,0.092,235.6
2021-02-27T02:52:03,42.805,6.029,-0.064,-0.024,0.006,111.0,109.0,106.0,13.4,1505.2,324.9,-0.8,1.8,2470.252,13.28,0.068,249.4
2021-02-27T02:55:03,42.805,6.029,-0.063,-0.033,-0.031,111.0,110.0,106.0,13.4,1505.2,327.0,-0.8,1.8,2470.294,13.28,0.071,242.4
2021-02-27T02:58:03,42.805,6.029,-0.062,-0.034,0.022,111.0,109.0,108.0,13.3,1505.2,325.2,-0.7,1.8,2470.268,13.28,0.07,241.3
2021-02-27T03:04:03,42.805,6.029,-0.049,-0.061,-0.006,110.0,110.0,107.0,13.4,1505.2,324.3,-0.7,1.8,2470.333,13.28,0.078,218.8
2021-02-27T03:07:03,42.805,6.029,-0.065,-0.029,-0.006,110.0,110.0,107.0,13.4,1505.2,327.6,-0.8,1.8,2470.303,13.28,0.071,246.0
2021-02-27T03:10:03,42.805,6.029,-0.051,-0.072,0.003,111.0,111.0,107.0,13.4,1505.2,324.0,-0.7,1.8,2470.319,13.28,0.088,215.3
2021-02-27T03:13:03,42.805,6.029,-0.086,-0.032,0.011,111.0,110.0,107.0,13.3,1505.2,325.5,-0.8,1.8,2470.337,13.28,0.091,249.6
2021-02-27T03:16:03,42.805,6.029,-0.053,-0.048,-0.007,111.0,110.0,107.0,13.4,1505.2,324.3,-0.8,1.8,2470.311,13.28,0.071,227.8
2021-02-27T03:19:03,42.805,6.029,-0.069,-0.04,-0.026,111.0,111.0,107.0,13.3,1505.2,325.8,-0.8,1.8,2470.345,13.28,0.079,239.9
2021-02-27T03:22:03,42.805,6.029,-0.065,-0.043,0.013,110.0,110.0,107.0,13.4,1505.2,326.8,-0.7,1.8,2470.314,13.28,0.077,236.5
2021-02-27T03:25:03,42.805,6.029,-0.062,-0.032,-0.018,113.0,110.0,107.0,13.4,1505.2,328.8,-0.7,1.8,2470.367,13.28,0.069,242.7
2021-02-27T03:28:03,42.805,6.029,-0.063,-0.047,-0.016,111.0,111.0,108.0,13.4,1505.2,328.1,-0.7,1.8,2470.298,13.28,0.078,233.3
2021-02-27T03:31:03,42.805,6.029,-0.06,-0.044,-0.008,112.0,110.0,107.0,13.4,1505.2,323.6,-0.8,1.8,2470.31,13.28,0.074,233.7
2021-02-27T03:34:03,42.805,6.029,-0.069,-0.022,-0.007,111.0,110.0,107.0,13.3,1505.2,326.7,-0.7,1.8,2470.331,13.28,0.072,252.3
2021-02-27T03:37:03,42.805,6.029,-0.082,-0.044,0.006,111.0,110.0,106.0,13.4,1505.2,325.3,-0.7,1.8,2470.341,13.28,0.093,241.8
2021-02-27T03:40:03,42.805,6.029,-0.086,-0.023,-0.001,112.0,110.0,107.0,13.3,1505.2,326.1,-0.7,1.8,2470.294,13.28,0.089,255.0
2021-02-27T03:43:03,42.805,6.029,-0.088,-0.017,-0.029,110.0,110.0,106.0,13.4,1505.2,325.0,-0.7,1.8,2470.323,13.28,0.089,259.1
2021-02-27T03:46:03,42.805,6.029,-0.087,-0.019,-0.018,110.0,110.0,107.0,13.3,1505.2,327.0,-0.8,1.8,2470.331,13.28,0.089,257.7
2021-02-27T03:49:03,42.805,6.029,-0.092,-0.034,-0.021,111.0,110.0,106.0,13.4,1505.2,326.8,-0.8,1.8,2470.371,13.28,0.098,249.7
2021-02-27T03:52:03,42.805,6.029,-0.098,-0.039,-0.028,111.0,109.0,107.0,13.4,1505.2,326.1,-0.7,1.8,2470.321,13.28,0.105,248.3
2021-02-27T03:55:03,42.805,6.029,-0.074,-0.041,-0.018,110.0,110.0,107.0,13.4,1505.2,323.0,-0.7,1.8,2470.344,13.28,0.084,241.0
2021-02-27T03:58:03,42.805,6.029,-0.068,-0.002,-0.033,109.0,109.0,105.0,13.4,1505.2,324.6,-0.8,1.8,2470.328,13.28,0.068,268.3
2021-02-27T04:04:03,42.805,6.029,-0.071,-0.031,-0.006,110.0,109.0,106.0,13.4,1505.2,327.1,-0.8,1.8,2470.38,13.28,0.077,246.4
2021-02-27T04:07:03,42.805,6.029,-0.099,-0.015,-0.011,109.0,108.0,106.0,13.4,1505.2,325.7,-0.8,1.9,2470.375,13.28,0.1,261.4
2021-02-27T04:10:03,42.805,6.029,-0.069,-0.04,-0.031,110.0,108.0,105.0,13.4,1505.2,325.0,-0.8,1.8,2470.398,13.28,0.079,239.9
2021-02-27T04:13:03,42.805,6.029,-0.07,-0.046,-0.005,110.0,108.0,108.0,13.4,1505.2,323.3,-0.8,1.8,2470.329,13.28,0.083,236.7
2021-02-27T04:16:03,42.805,6.029,-0.06,-0.012,-0.002,110.0,109.0,106.0,13.4,1505.2,328.4,-0.7,1.8,2470.371,13.28,0.061,258.7
2021-02-27T04:19:03,42.805,6.029,-0.075,-0.018,0.007,111.0,108.0,106.0,13.3,1505.2,327.9,-0.8,1.8,2470.409,13.28,0.077,256.5
2021-02-27T04:22:03,42.805,6.029,-0.088,-0.026,0.001,111.0,108.0,106.0,13.4,1505.2,323.3,-0.8,1.8,2470.382,13.28,0.091,253.5
2021-02-27T04:25:03,42.805,6.029,-0.076,-0.045,-0.018,109.0,108.0,106.0,13.3,1505.2,326.2,-0.8,1.8,2470.406,13.28,0.088,239.4
2021-02-27T04:28:03,42.805,6.029,-0.087,-0.034,-0.033,109.0,109.0,107.0,13.4,1505.2,322.7,-0.7,1.8,2470.399,13.28,0.093,248.7
2021-02-27T04:31:03,42.805,6.029,-0.081,-0.025,0.002,110.0,110.0,106.0,13.4,1505.2,325.0,-0.7,1.8,2470.439,13.28,0.084,252.9
2021-02-27T04:34:03,42.805,6.029,-0.082,-0.018,-0.011,111.0,110.0,105.0,13.4,1505.2,325.6,-0.7,1.8,2470.407,13.28,0.083,257.6
2021-02-27T04:37:03,42.805,6.029,-0.086,-0.018,-0.005,110.0,110.0,105.0,13.3,1505.2,324.2,-0.7,1.8,2470.417,13.28,0.087,258.2
2021-02-27T04:40:03,42.805,6.029,-0.095,-0.045,0.0,110.0,108.0,106.0,13.4,1505.2,327.9,-0.8,1.8,2470.421,13.28,0.105,244.7
2021-02-27T04:43:03,42.805,6.029,-0.061,-0.042,-0.026,110.0,110.0,107.0,13.4,1505.2,327.6,-0.7,1.8,2470.429,13.28,0.074,235.4
2021-02-27T04:46:03,42.805,6.029,-0.098,-0.039,-0.006,110.0,109.0,106.0,13.4,1505.2,327.4,-0.8,1.8,2470.447,13.28,0.105,248.3
2021-02-27T04:49:03,42.805,6.029,-0.087,-0.046,-0.029,110.0,110.0,107.0,13.3,1505.2,324.2,-0.8,1.8,2470.463,13.28,0.098,242.1
2021-02-27T04:52:03,42.805,6.029,-0.08,-0.034,-0.003,109.0,109.0,106.0,13.3,1505.2,324.8,-0.8,1.8,2470.455,13.28,0.086,247.0
2021-02-27T04:55:03,42.805,6.029,-0.097,-0.03,-0.008,110.0,111.0,107.0,13.4,1505.2,324.8,-0.7,1.8,2470.45,13.28,0.101,252.8
2021-02-27T04:58:03,42.805,6.029,-0.089,-0.027,-0.02,110.0,109.0,105.0,13.4,1505.2,326.5,-0.8,1.8,2470.462,13.28,0.093,253.1
2021-02-27T05:04:03,42.805,6.029,-0.084,-0.03,-0.003,111.0,109.0,106.0,13.3,1505.2,325.3,-0.7,1.8,2470.494,13.28,0.089,250.4
2021-02-27T05:07:03,42.805,6.029,-0.053,-0.025,-0.011,109.0,108.0,106.0,13.4,1505.2,325.6,-0.8,1.8,2470.491,13.28,0.058,244.7
2021-02-27T05:10:03,42.805,6.029,-0.089,-0.014,-0.018,110.0,109.0,105.0,13.4,1505.2,326.3,-0.8,1.8,2470.52,13.28,0.09,261.1
2021-02-27T05:13:03,42.805,6.029,-0.079,-0.024,-0.001,110.0,110.0,106.0,13.4,1505.2,326.6,-0.8,1.8,2470.51,13.28,0.082,253.1
2021-02-27T05:16:03,42.805,6.029,-0.079,-0.018,0.004,110.0,108.0,105.0,13.3,1505.2,324.4,-0.8,1.8,2470.466,13.28,0.081,257.2
2021-02-27T05:19:03,42.805,6.029,-0.088,-0.027,0.001,110.0,108.0,106.0,13.4,1505.2,327.1,-0.8,1.9,2470.492,13.28,0.092,252.9
2021-02-27T05:22:03,42.805,6.029,-0.073,-0.031,0.031,109.0,107.0,106.0,13.4,1505.2,324.3,-0.8,1.8,2470.475,13.28,0.079,247.0
2021-02-27T05:25:03,42.805,6.029,-0.068,-0.053,-0.007,109.0,108.0,106.0,13.3,1505.2,327.0,-0.8,1.8,2470.506,13.28,0.086,232.1
2021-02-27T05:28:03,42.805,6.029,-0.081,-0.057,0.004,108.0,108.0,106.0,13.4,1505.2,327.5,-0.7,1.8,2470.495,13.28,0.099,234.9
2021-02-27T05:31:03,42.805,6.029,-0.069,-0.025,-0.013,109.0,109.0,105.0,13.4,1505.2,327.5,-0.7,1.8,2470.559,13.28,0.073,250.1
2021-02-27T05:34:03,42.805,6.029,-0.057,-0.05,0.005,108.0,109.0,105.0,13.4,1505.2,324.7,-0.7,1.8,2470.482,13.28,0.075,228.7
2021-02-27T05:37:03,42.805,6.029,-0.083,-0.026,0.012,109.0,108.0,106.0,13.4,1505.2,325.3,-0.7,1.8,2470.469,13.28,0.086,252.6
2021-02-27T05:40:03,42.805,6.029,-0.087,-0.029,-0.034,108.0,108.0,105.0,13.4,1505.2,325.8,-0.7,1.8,2470.518,13.28,0.091,251.6
2021-02-27T05:43:03,42.805,6.029,-0.06,-0.049,-0.004,109.0,107.0,104.0,13.4,1505.2,325.7,-0.7,1.8,2470.53,13.28,0.077,230.8
2021-02-27T05:46:03,42.805,6.029,-0.066,-0.04,0.018,109.0,107.0,106.0,13.4,1505.2,326.7,-0.7,1.8,2470.489,13.28,0.077,238.8
2021-02-27T05:49:03,42.805,6.029,-0.072,-0.025,-0.012,108.0,107.0,105.0,13.4,1505.2,324.9,-0.7,1.8,2470.54,13.28,0.076,250.9
2021-02-27T05:52:03,42.805,6.029,-0.061,-0.064,-0.028,108.0,107.0,104.0,13.3,1505.2,326.8,-0.7,1.8,2470.492,13.28,0.088,223.6
2021-02-27T05:55:03,42.805,6.029,-0.074,-0.031,-0.028,108.0,108.0,104.0,13.4,1505.2,328.4,-0.8,1.8,2470.491,13.28,0.08,247.3
2021-02-27T05:58:03,42.805,6.029,-0.045,-0.057,-0.035,108.0,107.0,105.0,13.4,1505.2,323.6,-0.7,1.8,2470.545,13.28,0.072,218.3
2021-02-27T06:04:03,42.805,6.029,-0.06,-0.049,0.011,108.0,108.0,105.0,13.3,1505.2,325.5,-0.7,1.8,2470.57,13.28,0.077,230.8
2021-02-27T06:07:03,42.805,6.029,-0.078,-0.064,-0.021,108.0,108.0,105.0,13.4,1505.2,325.0,-0.8,1.8,2470.578,13.28,0.1,230.6
2021-02-27T06:10:03,42.805,6.029,-0.063,-0.055,-0.009,108.0,106.0,105.0,13.3,1505.2,323.2,-0.8,1.8,2470.583,13.28,0.083,228.9
2021-02-27T06:13:03,42.805,6.029,-0.063,-0.058,-0.022,108.0,108.0,104.0,13.4,1505.2,323.1,-0.8,1.8,2470.554,13.28,0.085,227.4
2021-02-27T06:16:03,42.805,6.029,-0.04,-0.051,0.003,107.0,108.0,105.0,13.4,1505.2,325.4,-0.8,1.8,2470.563,13.28,0.064,218.1
2021-02-27T06:19:03,42.805,6.029,-0.062,-0.051,-0.016,107.0,108.0,104.0,13.4,1505.2,327.9,-0.8,1.8,2470.571,13.28,0.08,230.6
2021-02-27T06:22:03,42.805,6.029,-0.071,-0.069,0.006,108.0,106.0,103.0,13.3,1505.2,324.8,-0.8,1.8,2470.549,13.28,0.099,225.8
2021-02-27T06:25:03,42.805,6.029,-0.073,-0.06,-0.013,107.0,106.0,105.0,13.4,1505.2,327.1,-0.7,1.8,2470.532,13.28,0.094,230.6
2021-02-27T06:28:03,42.805,6.029,-0.071,-0.059,0.004,107.0,107.0,105.0,13.4,1505.2,327.9,-0.8,1.8,2470.552,13.28,0.092,230.3
2021-02-27T06:31:03,42.805,6.029,-0.051,-0.05,-0.009,108.0,107.0,104.0,13.4,1505.2,326.7,-0.8,1.8,2470.552,13.28,0.071,225.6
2021-02-27T06:34:03,42.805,6.029,-0.063,-0.053,0.026,107.0,107.0,104.0,13.3,1505.2,327.5,-0.7,1.8,2470.547,13.28,0.082,229.9
2021-02-27T06:37:03,42.805,6.029,-0.067,-0.075,-0.01,107.0,107.0,106.0,13.4,1505.2,324.3,-0.8,1.8,2470.508,13.28,0.1,221.8
2021-02-27T06:40:03,42.805,6.029,-0.075,-0.048,-0.018,107.0,107.0,105.0,13.4,1505.2,325.3,-0.8,1.9,2470.54,13.28,0.089,237.4
2021-02-27T06:43:03,42.805,6.029,-0.053,-0.047,-0.005,107.0,105.0,104.0,13.4,1505.2,323.5,-0.8,1.8,2470.563,13.28,0.07,228.4
2021-02-27T06:46:03,42.805,6.029,-0.067,-0.044,-0.01,108.0,106.0,104.0,13.4,1505.2,325.8,-0.7,1.8,2470.575,13.28,0.08,236.7
2021-02-27T06:49:03,42.805,6.029,-0.055,-0.059,-0.002,107.0,107.0,105.0,13.3,1505.2,324.6,-0.7,1.8,2470.581,13.28,0.08,223.0
2021-02-27T06:52:03,42.805,6.029,-0.072,-0.047,0.006,107.0,106.0,106.0,13.4,1505.2,325.9,-0.8,1.8,2470.537,13.28,0.085,236.9
2021-02-27T06:55:03,42.805,6.029,-0.09,-0.06,-0.026,108.0,106.0,105.0,13.4,1505.2,326.5,-0.8,1.9,2470.567,13.28,0.108,236.3
2021-02-27T06:58:03,42.805,6.029,-0.075,-0.05,-0.053,107.0,106.0,104.0,13.3,1505.2,326.8,-0.8,1.8,2470.548,13.28,0.09,236.3
2021-02-27T07:04:03,42.805,6.029,-0.047,-0.066,0.004,108.0,106.0,105.0,13.4,1505.2,323.2,-0.8,1.8,2470.629,13.28,0.081,215.5
2021-02-27T07:07:03,42.805,6.029,-0.069,-0.045,-0.037,105.0,107.0,106.0,13.4,1505.2,325.9,-0.7,1.8,2470.612,13.28,0.082,236.9
2021-02-27T07:10:03,42.805,6.029,-0.065,-0.044,-0.016,108.0,106.0,105.0,13.4,1505.2,324.9,-0.8,1.8,2470.63,13.28,0.078,235.9
2021-02-27T07:13:03,42.805,6.029,-0.064,-0.056,-0.009,108.0,106.0,105.0,13.3,1505.2,327.9,-0.7,1.8,2470.55,13.28,0.085,228.8
2021-02-27T07:16:03,42.805,6.029,-0.061,-0.042,-0.004,107.0,107.0,104.0,13.4,1505.2,324.5,-0.7,1.8,2470.643,13.28,0.074,235.4
2021-02-27T07:19:03,42.805,6.029,-0.076,-0.047,-0.019,107.0,107.0,104.0,13.4,1505.2,327.2,-0.7,1.8,2470.638,13.28,0.089,238.3
2021-02-27T07:22:03,42.805,6.029,-0.058,-0.061,-0.035,108.0,107.0,104.0,13.3,1505.2,328.2,-0.8,1.8,2470.577,13.28,0.084,223.6
2021-02-27T07:25:03,42.805,6.029,-0.07,-0.059,-0.001,108.0,106.0,105.0,13.4,1505.2,324.5,-0.7,1.8,2470.592,13.28,0.091,229.9
2021-02-27T07:28:03,42.805,6.029,-0.076,-0.055,-0.014,108.0,107.0,103.0,13.4,1505.2,326.5,-0.7,1.8,2470.58,13.28,0.093,234.1
2021-02-27T07:31:03,42.805,6.029,-0.057,-0.038,0.008,107.0,106.0,105.0,13.3,1505.2,326.2,-0.7,1.8,2470.595,13.28,0.068,236.3
2021-02-27T07:34:03,42.805,6.029,-0.049,-0.065,0.007,108.0,107.0,104.0,13.4,1505.2,328.0,-0.7,1.8,2470.575,13.28,0.081,217.0
2021-02-27T07:37:03,42.805,6.029,-0.052,-0.049,0.001,109.0,107.0,103.0,13.3,1505.2,324.3,-0.7,1.8,2470.588,13.28,0.071,226.7
2021-02-27T07:40:03,42.805,6.029,-0.056,-0.055,-0.026,107.0,108.0,105.0,13.3,1505.2,328.5,-0.8,1.8,2470.577,13.28,0.078,225.5
2021-02-27T07:43:03,42.805,6.029,-0.068,-0.053,-0.03,108.0,107.0,105.0,13.4,1505.2,327.4,-0.7,1.8,2470.579,13.28,0.086,232.1
2021-02-27T07:46:03,42.805,6.029,-0.07,-0.083,-0.023,108.0,107.0,104.0,13.4,1505.2,326.5,-0.7,1.8,2470.592,13.28,0.108,220.1
2021-02-27T07:49:03,42.805,6.029,-0.037,-0.072,-0.041,108.0,107.0,104.0,13.4,1505.2,325.1,-0.7,1.8,2470.569,13.28,0.08,207.2
2021-02-27T07:52:03,42.805,6.029,-0.072,-0.045,0.02,108.0,107.0,104.0,13.3,1505.2,324.5,-0.7,1.8,2470.572,13.28,0.084,238.0
2021-02-27T07:55:03,42.805,6.029,-0.072,-0.069,0.004,108.0,107.0,104.0,13.4,1505.2,327.1,-0.8,1.8,2470.603,13.28,0.099,226.2
2021-02-27T07:58:03,42.805,6.029,-0.066,-0.06,0.009,108.0,106.0,105.0,13.3,1505.2,328.0,-0.7,1.8,2470.578,13.28,0.089,227.7
2021-02-27T08:04:03,42.805,6.029,-0.057,-0.082,-0.02,108.0,107.0,104.0,13.4,1505.2,324.9,-0.7,1.8,2470.608,13.28,0.099,214.8
2021-02-27T08:07:03,42.805,6.029,-0.059,-0.057,0.008,108.0,107.0,105.0,13.4,1505.2,326.9,-0.8,1.8,2470.637,13.28,0.082,226.0
2021-02-27T08:10:03,42.805,6.029,-0.068,-0.05,-0.04,108.0,106.0,105.0,13.4,1505.2,324.1,-0.8,1.8,2470.608,13.28,0.084,233.7
2021-02-27T08:13:03,42.805,6.029,-0.08,-0.052,-0.015,109.0,108.0,104.0,13.3,1505.2,325.5,-0.8,1.8,2470.597,13.28,0.095,237.0
2021-02-27T08:16:03,42.805,6.029,-0.043,-0.058,-0.005,108.0,108.0,103.0,13.4,1505.2,327.7,-0.8,1.9,2470.561,13.28,0.072,216.6
2021-02-27T08:19:03,42.805,6.029,-0.064,-0.052,-0.01,107.0,108.0,104.0,13.4,1505.2,324.2,-0.8,1.8,2470.615,13.28,0.082,230.9
2021-02-27T08:22:03,42.805,6.029,-0.052,-0.061,-0.036,108.0,108.0,104.0,13.3,1505.2,327.5,-0.7,1.9,2470.61,13.28,0.08,220.4
2021-02-27T08:25:03,42.805,6.029,-0.071,-0.041,0.003,107.0,106.0,104.0,13.3,1505.2,324.5,-0.8,1.8,2470.605,13.28,0.081,240.0
2021-02-27T08:28:03,42.805,6.029,-0.069,-0.036,0.015,107.0,107.0,105.0,13.4,1505.2,327.8,-0.7,1.8,2470.61,13.28,0.077,242.4
2021-02-27T08:31:03,42.805,6.029,-0.064,-0.037,0.0,107.0,107.0,103.0,13.4,1505.2,325.2,-0.8,1.8,2470.545,13.28,0.073,240.0
2021-02-27T08:34:03,42.805,6.029,-0.046,-0.045,-0.021,107.0,106.0,105.0,13.3,1505.2,327.8,-0.8,1.9,2470.581,13.28,0.064,225.6
2021-02-27T08:37:03,42.805,6.029,-0.041,-0.054,-0.004,106.0,108.0,103.0,13.4,1505.2,322.7,-0.8,1.8,2470.611,13.28,0.067,217.2
2021-02-27T08:40:03,42.805,6.029,-0.067,-0.048,-0.021,107.0,107.0,105.0,13.4,1505.2,327.2,-0.7,1.8,2470.566,13.28,0.082,234.4
2021-02-27T08:43:03,42.805,6.029,-0.057,-0.021,-0.015,106.0,108.0,104.0,13.4,1505.2,328.1,-0.8,1.8,2470.567,13.28,0.06,249.8
2021-02-27T08:46:03,42.805,6.029,-0.048,-0.049,-0.011,108.0,106.0,105.0,13.4,1505.2,323.6,-0.7,1.8,2470.587,13.28,0.068,224.4
2021-02-27T08:49:03,42.805,6.029,-0.057,-0.062,-0.023,108.0,107.0,105.0,13.3,1505.2,325.3,-0.7,1.8,2470.589,13.28,0.084,222.6
2021-02-27T08:52:03,42.805,6.029,-0.046,-0.051,-0.001,107.0,107.0,105.0,13.4,1505.2,325.2,-0.7,1.8,2470.568,13.28,0.068,222.0
2021-02-27T08:55:03,42.805,6.029,-0.054,-0.068,-0.025,109.0,107.0,104.0,13.3,1505.2,324.6,-0.7,1.8,2470.556,13.28,0.086,218.5
2021-02-27T08:58:03,42.805,6.029,-0.056,-0.078,-0.044,107.0,107.0,105.0,13.4,1505.2,327.0,-0.7,1.8,2470.551,13.28,0.096,215.7
2021-02-27T09:04:03,42.805,6.029,-0.05,-0.069,0.003,107.0,107.0,103.0,13.4,1505.2,323.6,-0.7,1.9,2470.583,13.28,0.085,215.9
2021-02-27T09:07:03,42.805,6.029,-0.06,-0.056,0.003,108.0,107.0,104.0,13.4,1505.2,324.9,-0.7,1.8,2470.602,13.28,0.082,227.0
2021-02-27T09:10:03,42.805,6.029,-0.047,-0.048,0.015,108.0,106.0,106.0,13.3,1505.2,325.3,-0.8,1.8,2470.618,13.28,0.067,224.4
2021-02-27T09:13:03,42.805,6.029,-0.041,-0.057,-0.007,108.0,107.0,104.0,13.4,1505.2,326.0,-0.7,1.8,2470.564,13.28,0.07,215.7
2021-02-27T09:16:03,42.805,6.029,-0.023,-0.051,-0.04,107.0,107.0,104.0,13.4,1505.2,328.1,-0.7,1.8,2470.635,13.28,0.055,204.3
2021-02-27T09:19:03,42.805,6.029,-0.059,-0.053,-0.028,107.0,107.0,105.0,13.3,1505.2,328.0,-0.7,1.8,2470.604,13.28,0.079,228.1
2021-02-27T09:22:03,42.805,6.029,-0.05,-0.07,-0.009,108.0,106.0,104.0,13.4,1505.2,326.8,-0.7,1.8,2470.598,13.28,0.086,215.5
2021-02-27T09:25:03,42.805,6.029,-0.072,-0.044,-0.02,108.0,106.0,103.0,13.4,1505.2,323.5,-0.8,1.8,2470.576,13.28,0.084,238.6
2021-02-27T09:28:03,42.805,6.029,-0.025,-0.052,-0.03,107.0,108.0,103.0,13.3,1505.2,323.1,-0.7,1.8,2470.609,13.28,0.057,205.7
2021-02-27T09:31:03,42.805,6.029,-0.064,-0.056,-0.018,106.0,108.0,104.0,13.4,1505.2,327.9,-0.8,1.8,2470.573,13.28,0.085,228.8
2021-02-27T09:34:03,42.805,6.029,-0.06,-0.055,0.011,109.0,106.0,104.0,13.4,1505.2,324.5,-0.8,1.9,2470.575,13.28,0.081,227.5
2021-02-27T09:37:03,42.805,6.029,-0.062,-0.061,-0.032,108.0,106.0,105.0,13.3,1505.2,326.5,-0.7,1.8,2470.518,13.28,0.086,225.5
2021-02-27T09:40:03,42.805,6.029,-0.059,-0.047,-0.016,107.0,106.0,104.0,13.4,1505.2,326.9,-0.8,1.8,2470.551,13.28,0.075,231.5
2021-02-27T09:43:03,42.805,6.029,-0.05,-0.057,-0.005,106.0,106.0,105.0,13.3,1505.2,326.2,-0.7,1.8,2470.568,13.28,0.075,221.3
2021-02-27T09:46:03,42.805,6.029,-0.05,-0.05,0.001,107.0,106.0,104.0,13.4,1505.2,325.7,-0.8,1.8,2470.564,13.28,0.07,225.0
2021-02-27T09:49:03,42.805,6.029,-0.053,-0.048,-0.02,108.0,107.0,104.0,13.4,1505.2,325.8,-0.8,1.8,2470.545,13.28,0.071,227.8